Погода в Золотаревке

Россия / Ставропольский край     45°38′27″N   42°32′35″E
темп.,
°C
ветер,
м/с
пор.,
м/с
влажн.,
%
обл.,
%
осадки,
мм/ч
давл.,
гПа
погр.,
м
14 апреля, ср
ср1400:00+9с2696100 0.0 1018147
03:00+8всв1191100 0.0 101710
06:00+7зюз3799100 0.0 1017163
09:00+11з6886100 0.0 1017583
12:00+12зюз5580100 0.1 1017816
15:00+12з6675100 0.1 1017814
18:00+12з3581100 0.0 1017468
21:00+8з359311 0.0 101894
15 апреля, чт
чт1500:00+7з379596 0.0 1017124
03:00+7з34944 0.0 101871
06:00+6з339459 0.0 101848
09:00+13з34720 0.0 1018505
12:00+17зсз45500 0.0 10171210
15:00+18зсз45445 0.0 10161606
18:00+16сз226132 0.0 101627
21:00+12зсз117097 0.0 101710
16 апреля, пт
пт1600:00+12зсз227834 0.0 101736
03:00+10зюз2285100 0.0 101711
06:00+10зсз2287100 0.0 101825
09:00+14с1170100 0.0 1018421
12:00+19в22549 0.0 10181353
15:00+20в3350100 0.7 10161592
18:00+17всв4866100 0.0 1016243
21:00+11зсз2591100 7.2 1020268
17 апреля, сб
сб1700:00+11зюз249652 0.1 1020225
03:00+9зсз489874 0.3 1020245
06:00+9зсз489588 0.8 1021504
09:00+12сз457534 1.1 1022809
12:00+15зсз4553100 0.1 10221678
15:00+16зсз3445100 0.1 10221871
18:00+14юз2260100 0.0 102234
21:00+10зсз1161100 0.0 102210
18 апреля, вс
вс1800:00+8в22695 0.0 102210
03:00+8в22725 0.0 102216
06:00+8вюв478496 0.0 1022127
09:00+14вюв5762100 0.0 1021729
12:00+17вюв455693 0.0 10211323
15:00+16всв4765100 0.0 1020228
18:00+14св4869100 0.0 1020191
21:00+12всв6108429 0.4 1020265